Theta_e
309 308 308 308 308 308 310 309 309 310 309 308 309 310 312 316 315 318 325 326 326 326 324 324 324 325 325 324 323 319 326 330 332 331 327 323 325 319 320 330 326 328 330 331 334
309 309 308 309 308 308 309 308 309 309 309 307 307 307 310 315 317 321 323 325 326 326 324 325 325 325 325 325 324 323 325 326 326 323 324 324 323 322 326 328 330 331 331 333 332
309 309 308 308 309 308 309 307 308 306 309 307 306 306 308 315 320 319 318 322 324 326 325 324 325 325 328 325 325 323 327 323 322 322 322 324 324 320 325 329 327 331 332 334 332
309 309 309 306 308 308 308 307 308 306 308 308 305 305 307 315 313 321 322 321 323 325 324 324 324 327 329 329 325 328 324 323 323 321 321 323 322 324 323 324 322 328 333 333 333
309 309 307 306 306 308 308 308 308 305 305 308 306 305 308 315 317 318 318 323 325 324 324 324 326 327 329 328 327 327 326 324 322 322 322 320 323 324 322 325 328 332 332 333 332
307 307 306 306 306 307 308 308 308 306 303 306 307 307 310 313 314 317 319 323 326 325 323 323 325 325 327 328 328 327 326 325 324 323 321 323 323 323 323 331 333 332 332 333 332
307 307 306 306 306 305 305 308 307 304 302 304 308 310 312 310 313 312 317 322 324 324 323 323 323 326 326 329 326 326 327 324 322 322 323 322 326 326 325 333 334 332 331 332 332
306 305 305 306 305 305 303 307 305 302 301 304 307 311 307 308 311 313 315 320 323 322 322 323 323 325 327 325 327 329 327 330 324 321 323 324 328 325 329 334 335 333 332 331 330
306 304 305 305 305 304 303 305 303 299 300 305 308 309 307 308 313 315 315 319 322 322 321 322 324 326 326 330 332 330 333 329 327 319 322 325 327 323 329 333 334 332 332 332 331
306 304 305 305 305 304 303 303 300 300 306 308 307 306 303 307 312 313 316 317 321 321 323 324 326 328 330 331 335 332 331 330 327 321 320 325 326 323 328 332 332 331 331 332 331
305 305 305 305 305 303 302 299 297 297 304 302 302 303 306 307 309 313 316 318 319 323 327 325 328 330 326 328 328 328 329 331 326 320 322 324 325 324 323 329 330 331 330 331 331
305 305 305 305 305 303 301 299 299 302 300 301 303 304 305 307 306 308 313 317 320 324 324 326 327 325 324 326 327 328 330 331 324 321 321 321 324 322 320 325 328 330 329 330 317
305 305 305 305 306 303 299 302 304 303 296 297 303 304 303 307 305 306 314 317 317 319 324 324 325 324 327 329 330 330 330 330 330 322 321 321 325 322 318 318 322 325 325 325 318
305 305 305 305 302 300 298 302 302 301 289 293 302 303 306 306 301 306 313 314 317 320 323 325 321 325 327 329 329 332 328 328 326 329 334 324 334 324 319 319 318 320 323 320 313
305 305 305 302 301 299 301 302 302 297 290 294 305 305 307 304 303 310 309 311 313 318 318 322 324 325 328 327 326 328 326 328 327 330 330 328 331 327 318 319 316 313 314 310 309
305 304 302 300 301 303 303 302 299 291 288 300 306 305 306 306 305 305 312 312 311 313 314 316 316 322 324 323 324 321 322 322 323 328 331 330 330 328 322 319 317 309 309 308 308
304 302 301 302 302 303 302 297 293 289 291 295 303 305 306 307 307 307 310 312 313 315 318 316 318 320 321 326 322 323 327 326 327 328 332 320 330 328 322 320 315 310 309 309 309
302 301 302 303 303 302 298 293 288 283 284 297 302 303 304 306 307 307 308 307 312 314 318 320 323 323 322 324 326 326 326 326 330 328 323 319 330 329 316 313 310 309 309 309 308
302 301 301 302 302 301 294 289 288 285 294 302 302 300 301 302 304 307 307 306 310 312 319 320 321 318 320 320 323 322 327 314 313 308 321 324 319 312 316 313 311 312 310 309 307
300 300 299 301 302 299 293 295 287 293 301 301 296 295 292 297 305 306 306 305 307 313 313 317 321 318 320 319 316 321 316 321 318 319 321 314 311 316 314 317 313 312 311 309 308
299 293 298 301 300 293 290 285 288 295 299 300 299 300 303 300 305 307 304 306 306 312 313 314 318 317 320 320 320 319 320 318 317 316 321 319 316 305 308 318 315 313 310 309 309
294 292 297 299 292 280 285 287 295 296 298 300 302 301 302 300 305 307 305 307 307 312 315 315 315 319 315 313 313 316 318 317 321 321 313 317 312 306 306 308 316 314 311 311 310
286 292 296 296 289 282 283 290 294 296 298 301 303 304 304 306 305 303 305 305 310 312 313 314 316 318 317 317 315 319 315 312 313 314 317 318 313 305 305 306 311 313 314 311 308
289 290 288 289 287 290 286 289 294 299 299 301 302 303 304 304 304 306 308 310 310 311 312 312 311 315 316 318 317 319 317 313 315 317 318 315 310 308 306 306 306 306 306 305 304
287 285 283 288 292 297 298 299 301 301 301 301 302 302 303 302 304 306 309 312 311 312 310 311 309 308 309 310 314 316 317 314 318 315 318 315 310 309 307 305 306 306 305 305 304
290 289 288 287 290 296 296 295 299 299 299 302 302 301 302 302 301 307 308 310 312 312 311 307 312 310 311 309 316 317 316 317 315 313 310 308 309 306 306 304 304 305 306 305 304
291 290 289 286 293 289 293 296 297 297 298 300 300 301 301 299 299 299 299 306 310 312 307 308 309 308 312 305 313 317 315 314 310 308 307 308 307 307 307 305 304 304 306 306 305
Wind_Speed
13 13 12 10 9 9 8 7 8 9 10 9 8 8 9 8 8 10 7 7 8 11 3 5 7 5 4 3 3 3 2 2 1 1 1 1 1 1 0 5 1 2 4 4 25
15 15 13 12 11 9 9 7 6 8 9 9 9 8 9 9 9 12 10 11 12 9 6 5 2 4 1 3 3 3 2 5 1 1 3 4 1 6 3 3 2 2 4 20 25
17 15 16 13 11 10 8 7 5 7 7 8 8 8 8 6 4 5 9 18 12 13 13 8 11 5 4 4 4 4 4 1 1 2 4 3 4 4 6 3 6 7 13 16 23
18 17 15 15 12 10 8 7 5 6 6 7 7 8 8 2 6 2 1 13 22 16 12 8 5 7 5 9 5 2 6 3 2 2 5 4 5 2 5 3 3 9 19 19 19
18 18 16 15 14 11 9 7 5 6 6 6 5 5 6 3 6 8 9 8 21 18 14 8 5 5 9 11 6 6 4 3 6 2 6 4 4 4 5 3 5 16 19 16 19
18 17 15 14 14 11 8 7 6 7 6 5 4 4 3 8 6 8 6 5 16 19 11 9 7 5 4 7 10 7 8 3 5 3 4 3 4 2 1 5 9 15 15 15 18
19 17 14 14 14 11 8 6 7 7 6 5 4 3 2 9 5 11 7 3 11 17 7 10 7 5 6 5 6 5 4 3 4 2 4 5 3 5 2 5 9 10 12 14 14
19 15 13 14 12 11 7 6 6 6 6 4 5 3 5 6 9 7 5 5 6 12 5 14 5 3 0 4 3 4 2 3 2 3 2 4 6 2 4 7 9 8 8 8 5
18 14 12 14 15 11 7 6 6 5 5 4 2 3 5 5 1 2 5 4 6 6 7 12 9 4 3 7 4 5 3 4 2 1 1 3 5 2 3 5 6 6 8 8 6
17 13 14 15 13 8 6 5 5 3 1 1 1 1 2 3 3 4 3 8 5 8 5 6 4 4 3 4 9 7 10 5 5 5 3 4 6 0 3 5 6 6 6 7 8
13 13 15 15 14 10 7 2 4 3 0 4 3 2 2 9 4 2 2 4 2 5 4 4 5 12 20 10 7 8 7 10 4 3 5 7 5 5 5 4 6 7 7 6 7
12 14 15 17 15 11 6 3 2 1 3 2 5 4 3 1 3 3 2 4 4 6 7 6 14 10 5 11 10 6 13 7 2 2 4 4 7 6 5 5 7 8 7 7 5
13 16 18 17 15 10 4 3 3 1 1 3 2 2 4 3 2 4 3 3 2 5 16 15 1 10 14 12 13 10 8 6 4 4 2 5 5 4 4 3 5 5 6 5 8
16 18 19 18 9 7 2 5 1 1 5 4 3 3 2 2 4 5 6 1 2 3 7 9 5 11 6 10 10 15 8 6 8 9 5 1 4 5 5 6 4 6 8 7 6
20 21 19 7 8 4 1 6 2 2 3 4 2 1 2 0 5 3 3 4 6 3 7 1 8 8 9 8 11 4 9 11 9 9 6 3 2 4 5 5 5 5 5 7 7
22 21 17 10 6 4 7 4 2 6 5 4 2 3 2 2 4 5 3 2 3 6 5 3 4 9 9 6 11 8 8 6 3 2 5 12 11 5 6 6 4 3 6 9 10
24 17 9 7 4 6 3 3 5 4 4 5 3 4 3 2 1 2 2 5 5 3 2 2 4 3 13 10 11 5 9 1 2 3 2 5 8 4 2 2 7 10 9 9 10
17 10 14 12 8 2 1 5 4 3 4 3 2 3 3 1 3 2 2 4 4 7 2 5 3 5 3 5 6 8 5 4 5 5 3 4 5 3 3 4 11 11 9 8 9
13 14 9 8 3 2 5 4 6 6 4 2 5 1 2 4 3 4 5 3 7 8 5 4 3 2 1 4 9 3 5 2 5 3 3 3 3 1 2 5 11 14 14 10 4
4 5 5 6 3 4 4 4 3 4 1 2 2 4 4 3 3 5 6 6 6 8 8 1 1 2 1 5 7 5 5 4 3 4 2 2 3 3 6 8 8 10 13 12 8
5 3 7 4 4 4 3 6 4 5 4 4 4 3 6 3 7 3 5 5 8 9 12 5 2 1 6 0 5 6 4 4 4 1 3 3 4 3 8 11 14 12 12 13 11
3 2 6 1 3 2 2 5 4 5 6 8 5 8 6 6 5 8 7 6 9 10 12 3 2 1 2 1 4 3 5 4 3 4 1 1 3 1 3 9 12 14 14 13 11
2 1 3 0 2 2 4 4 4 4 7 5 7 9 5 5 6 7 7 6 6 12 16 8 3 3 3 2 4 4 4 4 4 3 1 2 3 2 2 6 13 15 15 13 10
3 2 3 3 1 5 1 4 3 5 8 6 3 2 3 5 8 5 6 6 7 5 8 6 3 2 2 2 3 5 5 3 4 3 4 3 3 6 5 8 6 7 10 13 14
3 3 3 2 3 1 1 3 3 3 5 4 3 6 4 5 7 12 7 5 6 9 2 4 5 3 3 2 3 7 12 6 3 6 4 6 6 4 5 7 8 10 12 14 14
3 3 1 1 2 1 3 3 3 4 4 1 1 9 6 3 4 2 4 7 6 12 7 0 5 5 2 5 9 3 7 4 4 3 3 4 4 3 4 7 6 8 12 13 13
3 3 3 2 1 2 3 3 5 3 1 4 6 6 3 5 8 8 8 4 7 11 7 4 6 4 1 3 6 3 13 13 4 5 7 5 6 5 4 7 8 10 13 15 12
Wind_Direction
270 270 271 275 283 286 279 283 291 289 286 296 315 319 315 302 284 273 231 224 209 233 247 163 165 118 80 118 106 96 75 230 244 191 45 266 89 124 260 113 96 62 140 144 153
268 264 263 268 275 280 282 268 284 285 282 282 295 316 320 313 297 245 222 227 225 237 194 169 92 85 122 178 112 122 183 220 242 344 323 347 287 168 144 129 146 86 56 134 145
262 260 258 254 261 273 277 266 281 290 290 279 287 301 324 319 294 254 241 235 238 228 190 180 171 108 183 180 171 140 208 197 169 306 343 337 347 173 135 227 199 188 158 147 150
257 256 254 250 248 257 266 266 275 297 302 283 278 290 310 243 212 79 335 222 228 208 171 153 145 148 187 182 165 163 239 234 242 51 353 327 311 260 199 241 347 156 158 157 161
258 251 250 248 243 245 258 261 265 285 298 296 285 282 297 216 250 310 330 228 204 192 178 150 155 161 187 194 145 182 227 215 258 285 285 285 270 243 233 332 82 132 156 165 172
259 258 247 241 238 240 242 250 254 280 299 301 299 286 232 242 299 342 312 214 191 186 187 158 187 193 221 173 182 188 207 219 287 294 261 256 281 134 181 118 117 143 160 171 178
255 252 238 234 229 232 237 239 252 280 296 297 299 294 218 237 278 317 325 250 207 189 175 188 154 202 154 120 162 129 169 211 236 253 229 166 295 232 123 138 136 153 159 170 179
252 249 234 226 221 224 229 230 255 283 292 284 287 229 241 237 270 295 291 274 231 205 198 200 182 105 114 119 85 131 174 174 265 174 275 142 269 286 162 160 158 154 154 158 149
244 238 220 213 210 211 212 233 264 292 289 282 223 185 252 301 265 278 235 244 207 183 186 162 137 156 167 146 137 170 156 175 252 159 129 163 255 321 179 178 169 162 164 158 155
234 224 208 203 199 201 204 236 275 296 209 147 162 45 302 311 327 324 273 227 229 145 138 177 199 144 176 186 184 171 205 192 172 210 153 192 255 333 192 207 181 173 171 158 169
217 211 195 189 183 188 197 225 16 342 144 198 220 240 328 328 288 310 326 154 229 183 181 207 206 199 202 212 214 172 174 193 178 196 149 206 236 245 170 181 189 194 174 169 166
189 189 186 180 171 178 178 114 198 162 319 241 282 304 280 311 312 304 223 188 182 220 177 177 224 207 164 192 218 207 200 173 45 195 145 194 249 248 171 216 198 183 177 177 140
171 168 174 165 160 157 164 180 146 11 95 325 252 296 288 166 246 264 183 167 266 298 199 206 75 165 181 176 178 199 198 168 154 182 81 129 287 202 218 204 174 165 162 177 168
150 154 160 156 135 147 184 176 151 54 64 292 347 340 327 246 274 243 214 192 218 221 256 218 129 168 177 181 179 209 185 208 154 175 194 156 261 232 190 196 179 176 172 166 145
140 145 144 129 124 142 172 161 182 55 32 288 340 312 14 137 317 30 281 50 237 334 355 86 173 187 188 188 176 206 164 181 177 192 140 212 192 256 141 199 198 192 159 132 126
135 138 136 117 105 123 139 153 31 46 261 359 340 26 7 179 320 315 180 248 167 246 261 273 297 212 189 164 171 135 88 48 63 144 221 189 196 226 185 182 151 125 130 121 116
136 133 125 110 116 132 137 41 44 126 308 306 356 353 354 265 314 252 279 190 185 146 203 351 242 267 150 123 154 129 137 120 170 187 207 348 200 211 175 145 168 152 135 123 123
128 131 85 96 111 124 63 52 80 247 238 306 296 286 293 284 234 230 237 205 181 133 203 177 174 218 205 144 164 158 154 166 177 178 136 352 221 213 279 113 112 103 110 110 124
118 87 68 49 74 50 70 62 203 203 196 341 317 298 271 283 204 210 219 225 193 174 193 168 240 301 223 106 154 158 165 108 113 57 110 188 278 323 90 91 126 132 126 109 146
90 70 43 21 35 48 74 228 207 206 214 142 191 174 205 231 219 201 189 209 199 175 127 76 225 342 173 90 25 137 143 79 3 132 218 249 266 235 199 165 141 139 135 135 136
40 47 1 53 58 53 147 229 260 236 225 228 232 254 221 229 212 220 235 276 189 163 177 179 314 293 171 120 168 134 153 89 116 99 147 143 247 193 190 178 165 157 147 147 142
77 29 353 110 51 19 157 195 219 225 214 250 241 248 241 198 241 215 228 232 179 149 172 134 205 176 51 262 262 97 146 143 119 199 261 111 269 257 195 174 167 162 159 164 164
93 251 352 72 136 287 298 277 231 217 222 221 231 215 196 217 232 222 188 227 185 163 164 152 207 128 118 42 19 137 128 113 122 90 270 109 254 218 182 164 178 173 174 173 155
91 15 329 46 181 147 171 256 258 219 246 232 266 262 238 240 214 277 215 189 197 136 140 122 96 6 174 96 130 128 142 137 105 109 145 249 268 220 200 172 157 144 153 150 156
48 240 190 256 286 215 190 259 274 276 220 214 238 222 275 254 222 207 203 171 189 151 85 134 124 101 353 291 102 132 164 155 115 145 138 226 211 195 202 198 176 162 150 150 156
137 144 67 253 280 259 233 257 245 261 206 162 299 297 272 319 289 255 163 181 169 169 183 227 133 113 30 325 138 119 165 163 136 154 282 191 250 187 133 112 120 142 152 162 170
135 118 112 281 212 96 232 247 276 355 245 107 262 263 300 293 279 265 266 269 141 155 156 121 131 131 154 306 106 112 198 184 164 168 174 174 217 158 136 144 161 169 174 178 179